Location: ?????
(55.8833°N, 37.6500°E)
Time: 07:06:13
(UTC+00:00)

STARLINK-1031 - Pass Details

Date: 27 February 2020
Orbit: 553 x 555 km, 53.0° (Epoch: 31 March)

Event Time Altitude Azimuth Distance (km) Brightness Sun altitude
Rises 17:01:37 0° 255° (WSW) 2,731 8.3 -18.0°
Reaches altitude 10° 17:03:52 10° 251° (WSW) 1,837 7.2 -18.3°
Maximum altitude 17:07:58 57° 173° (S) 660 3.8 -18.9°
Enters shadow 17:08:50 46° 127° (SE) 752 3.9 -19.0°
